Regional Weather Roundup
Issued by NWS

Home | Current Version | Previous Version | Text Only | Print | Product List | Glossary On
Versions: 1 2 3 4 5 6 7 8 9 10 11 12 13 14 15 16 17 18 19 20 21 22 23 24 25 26 27 28 29 30 31 32 33 34 35 36 37 38 39 40 41 42 43 44 45 46 47 48 49
000
ASUS45 KREV 022310
RWRNV
NEVADA REGIONAL WEATHER ROUNDUP
NATIONAL WEATHER SERVICE RENO NV
400 PM PDT SUN AUG 02 2015

NOTE: "FAIR" INDICATES FEW OR NO CLOUDS BELOW 12,000 FEET WITH NO
SIGNIFICANT WEATHER AND/OR OBSTRUCTIONS TO VISIBILITY.

NVZ001-003-004-030000-
WESTERN NEVADA

CITY           SKY/WX    TMP DP  RH WIND       PRES   REMARKS
RENO           CLOUDY    84  49  29 N17       30.05F
CARSON CITY    PTSUNNY   84  41  21 N15       30.05F
MINDEN         PTSUNNY   84  39  20 N12       30.05R
SLIDE MTN        N/A     59  39  47 E9          N/A
PYRAMID LAKE     N/A     81 N/A N/A N15         N/A
FALLON         CLOUDY    83  48  29 NE8       30.00F
LOVELOCK       CLOUDY    88  43  20 S12       29.99F
HAWTHORNE      SUNNY     88  46  23 CALM      30.01F
$$

NVZ002-CAZ072-073-030000-
NORTHERN AND CENTRAL SIERRA

CITY           SKY/WX    TMP DP  RH WIND       PRES   REMARKS
S. LAKE TAHOE  PTSUNNY   66  58  75 CALM      30.19S
TRUCKEE        PTSUNNY   73  54  49 NW8       30.17S
SQUAW VLY 8000   N/A     68  46  45 SW3         N/A
SUSANVILLE     MOSUNNY   75  52  43 SE16G29   30.09R
BLUE CANYON    MOSUNNY   77  45  32 SW8       30.16S
MAMMOTH LAKES  FAIR      79  32  18 W16G23    30.21F
BRIDGEPORT     FAIR      81  34  18 SW10G20   30.16F
$$

NVZ030-031-036-030000-
NORTHERN NEVADA

CITY           SKY/WX    TMP DP  RH WIND       PRES   REMARKS
ELKO           PTSUNNY   92  33  12 VRB5      29.99F
WINNEMUCCA     NOT AVBL
WENDOVER       PTSUNNY   95  32  11 SE13      29.94F
$$

NVZ035-037-030000-
CENTRAL NEVADA

CITY           SKY/WX    TMP DP  RH WIND       PRES   REMARKS
ELY            CLOUDY    81  38  21 S10       30.14S
EUREKA           N/A     72  50  45 N9        30.15R
$$

NVZ013-014-030000-
SOUTH CENTRAL NEVADA

CITY           SKY/WX    TMP DP  RH WIND       PRES   REMARKS
TONOPAH        PTSUNNY   84  40  21 N7        30.09F
$$

NVZ017-020-022-030000-
SOUTHERN NEVADA

CITY           SKY/WX    TMP DP  RH WIND       PRES   REMARKS
LAS VEGAS      MOSUNNY  101  48  16 E9        29.78F
N. LAS VEGAS   SUNNY    100  50  18 N5        29.82F
NELLIS AFB     SUNNY    102  50  17 NW10      29.79F
HENDERSON      MOSUNNY  101  53  20 NE10      29.85F
MERCURY        SUNNY     97  41  14 W9        29.91F
$$


USA.gov is the U.S. government's official web portal to all federal, state and local government web resources and services.